To NAV CANADA Home Page Login to a new session Search on AWWS site Feedback and Comments Disclaimer Vers la page française équivalente Tips FAQ What's new on the site To the Forecasts and Observations / NOTAM section To "File a Flight Plan" website Publications and other links Update of the User's profile FIC Telephone Numbers My Weather Data Folder Route Weather Data Regional Weather Data Local Weather Data To the Forecasts and Observations / NOTAM section
Request Generated 12/04/2016 at 22:20:39 UTC . Weather information available at that time is displayed.

METAR/TAF

SANIKILUAQ/NU    

METAR CYSK 042200Z 21008KT 10SM -SG OVC005 M05/M06 A3009 RMK SF8 CALL
OUT LAST MANNED OB/NEXT 051300UTC SLP194=
SPECI CYSK 042111Z 21010KT 10SM -SG OVC004 M05/M06 A3009 RMK SF8 CALL
OUT BLN DSAPRD 500FT SLP195=
METAR CYSK 042100Z 22008KT 15SM OVC004 M05/M06 A3009 RMK SF8 CALL OUT
BLN DSAPRD 500FT SLP195=
METAR CYSK 042000Z 23008G15KT 15SM OVC005 M04/M06 A3010 RMK SF8 CALL
OUT BLN DSAPRD 650FT SLP196=

CYSK - No TAF is issued for this station

Your time UTC time
Weather data provided by Environment Canada and NAV CANADA